User: anonymous   Login
Location: Mount Graham
(32.7016°N, 109.8912°W)
Time: 06:33:10
(UTC-07:00)
Language:

Cosmos 1340 - Orbit

View from above orbital plane
View from above orbital plane
View from above satellite
View from above satellite

Ground track
Ground track

The orbit data is extracted from the following two-line orbital elements,

1 13067U 82013A   17117.89172338 +.00001297 +00000-0 +60286-4 0  9994
2 13067 081.1885 192.9854 0003038 003.2277 356.8973 15.19290940919902
Epoch (UTC): 27 April 2017 21:24:04
Eccentricity: 0.0003038
inclination: 81.1885°
perigee height: 506 km
apogee height: 510 km
right ascension of ascending node: 192.9854°
argument of perigee: 3.2277°
revolutions per day: 15.19290940
mean anomaly at epoch: 356.8973°
orbit number at epoch: 91990

The dashed part of the orbit path shows where the satellite is in the earth's shadow,  

DLR